Regional Weather Roundup
Issued by NWS

Home | Current Version | Previous Version | Text Only | Print | Product List | Glossary On
Versions: 1 2 3 4 5 6 7 8 9 10 11 12 13 14 15 16 17 18 19 20 21 22 23 24 25 26 27 28 29 30 31 32 33 34 35 36 37 38 39 40 41 42 43 44 45 46 47 48 49 50
000
ASUS43 KBIS 300510
RWRND

NORTH DAKOTA REGIONAL WEATHER ROUNDUP
NATIONAL WEATHER SERVICE BISMARCK ND
1200 AM CDT SAT APR 30 2016

NOTE: "FAIR" INDICATES FEW OR NO CLOUDS BELOW 12,000 FEET WITH NO
SIGNIFICANT WEATHER AND/OR OBSTRUCTIONS TO VISIBILITY.


NDZ001>003-009>011-017-300600-
NORTHWEST NORTH DAKOTA

CITY           SKY/WX    TMP DP  RH WIND       PRES   REMARKS
WILLISTON      CLEAR     47  27  45 E10       30.15R
MINOT          CLEAR     46  28  49 E7        30.17S
MINOT AFB      CLEAR     41  29  61 SE3       30.17S
$$

NDZ018>021-031>035-040>046-300600-
SOUTHWEST NORTH DAKOTA

CITY           SKY/WX    TMP DP  RH WIND       PRES   REMARKS
BISMARCK       PTCLDY    45  34  65 NE6       30.13R
DICKINSON      PTCLDY    41  31  67 E9        30.09R
GARRISON         N/A     47  30  51 E12       30.14F
HETTINGER ARPT PTCLDY    36  31  82 CALM      30.10S
$$

NDZ004>008-012>016-024-026-027-054-300600-
NORTHEAST NORTH DAKOTA

CITY           SKY/WX    TMP DP  RH WIND       PRES   REMARKS
GRAND FORKS    CLEAR     47  32  56 E10       30.18S
GRND FRKS AFB  CLEAR     47  30  52 E10       30.18S
DEVILS LAKE    CLEAR     44  31  60 NE10      30.19S
$$

NDZ022-023-025-028>030-036>039-047>053-300600-
SOUTHEAST NORTH DAKOTA

CITY           SKY/WX    TMP DP  RH WIND       PRES   REMARKS
FARGO          CLEAR     50  31  48 NE10      30.12R
JAMESTOWN      CLEAR     47  32  56 NE12      30.12S
$$





USA.gov is the U.S. government's official web portal to all federal, state and local government web resources and services.